Location: Bothwell
(42.3833°S, 147.0000°E)
Time: 01:03:22
(UTC+10:00)

Envisat - Pass Details

Date: 03 March 2024
Orbit: 762 x 764 km, 98.3° (Epoch: 24 April)

Event Time Altitude Azimuth Distance (km) Brightness Sun altitude
Exits shadow 03:58:20 38° 204° (SSW) 1,175 4.0 -29.6°
Drops below altitude 10° 04:01:28 10° 196° (SSW) 2,333 5.8 -29.1°
Sets 04:03:48 0° 194° (SSW) 3,266 6.6 -28.8°
